Regional Weather Roundup
Issued by NWS

Home | Current Version | Previous Version | Text Only | Print | Product List | Glossary Off
Versions: 1 2 3 4 5 6 7 8 9 10 11 12 13 14 15 16 17 18 19 20 21 22 23 24 25 26 27

000
ASUS45 KCYS 281510
RWRWY

WYOMING REGIONAL WEATHER ROUNDUP
NATIONAL WEATHER SERVICE CHEYENNE WY
900 AM MDT SUN MAY 28 2017

NOTE:  "FAIR" INDICATES FEW OR NO CLOUDS BELOW 12,000 FEET
WITH NO SIGNIFICANT WEATHER AND/OR OBSTRUCTIONS TO VISIBILITY.

WYZ001-281600-
YELLOWSTONE NATIONAL PARK

CITY           SKY/WX    TMP DP  RH WIND       PRES   REMARKS
LK YELLOWSTONE   N/A     39  34  82 CALM      30.43S
W YELLOWSTONE  NOT AVBL

$$
WYZ002>013-054>058-071-098>099-281600-
NORTHERN WYOMING

CITY           SKY/WX    TMP DP  RH WIND       PRES   REMARKS
JACKSON        SUNNY     45  34  65 CALM      30.40S
CODY           FAIR      61  38  42 SW12      30.27F
GREYBULL       FAIR      58  37  45 VRB3      30.24R
WORLAND        PTSUNNY   58  43  57 SW3       30.24F
SHERIDAN       FAIR      66  43  43 N15       30.19R
BUFFALO        FAIR      64  39  39 N17G25    30.22R
GILLETTE       FAIR      62  44  51 NW15      30.18S
HULETT         FAIR      59  41  51 MISG      30.18S
NEWCASTLE      FAIR      55  39  54 NW17G23   30.19S

$$
WYZ014>020-022>026-101>103-281600-
CENTRAL WYOMING

CITY           SKY/WX    TMP DP  RH WIND       PRES   REMARKS
BIG PINEY      FAIR      48  33  56 CALM      30.39S
PINEDALE       FAIR      48  30  49 CALM      30.40R
DUBOIS         FAIR      52  34  50 N10       30.36F
LANDER         FAIR      54  33  45 VRB3      30.30R
RIVERTON       FAIR      54  39  57 NW8       30.30R
CASPER         PTSUNNY   55  40  56 W5        30.27R
DOUGLAS        FAIR      59  39  47 NW15      30.24S

$$
WYZ021-027>030-104>119-281600-
SOUTHERN WYOMING

CITY           SKY/WX    TMP DP  RH WIND       PRES   REMARKS
EVANSTON       FAIR      49  35  58 N3        30.37S
KEMMERER         N/A     50  32  50 N5        30.40R
FORT BRIDGER   FAIR      53  32  45 NE3       30.41R
ROCK SPRINGS   FAIR      50  33  52 VRB3      30.37R
DIXON            N/A     46  31  56 CALM      30.40S
RAWLINS        FAIR      53  29  39 VRB7      30.35S
SARATOGA       FAIR      48  32  53 SE6       30.37S
LARAMIE        FAIR      49  34  56 VRB3      30.33S
CHEYENNE       FAIR      58  29  33 NW14      30.28S
TORRINGTON     FAIR      60  40  47 W12       30.19R
PINE BLUFFS    FAIR      61  34  36 NW17      30.25R

$$




USA.gov is the U.S. government's official web portal to all federal, state and local government web resources and services.